Regional Weather Roundup
Issued by NWS Northern Indiana

Home | Current Version | Previous Version | Text Only | Print | Product List | Glossary On
Versions: 1 2 3 4 5 6 7 8 9 10 11 12 13 14 15 16 17 18 19 20 21 22 23 24 25 26 27 28 29 30 31 32 33 34 35 36 37 38 39 40 41 42 43 44 45 46 47 48 49 50
000
ASUS43 KIWX 300810
RWRIWX

KIWX WEATHER ROUNDUP
NATIONAL WEATHER SERVICE NORTHERN INDIANA
400 AM EDT SUN AUG 30 2015

NOTE: "FAIR" INDICATES FEW OR NO CLOUDS BELOW 12,000 FEET WITH NO
SIGNIFICANT WEATHER AND/OR OBSTRUCTIONS TO VISIBILITY.

* THESE STATIONS ARE NOT UNDER NWS QUALITY CONTROL. THEY ALSO MAY NOT
  REPORT WEATHER SUCH AS PRECIPITATION OR FOG.

INZ001>027-300900-
NORTHERN INDIANA

CITY           SKY/WX    TMP DP  RH WIND       PRES   REMARKS
GARY*          CLOUDY    66  64  91 N6        30.03S FOG
VALPARAISO     FOG       69  67  93 CALM      30.02F VSB 1
MICHIGAN CITY* CLOUDY    66  66 100 CALM      30.02S FOG
LAPORTE*       FOG      N/A N/A N/A W3        30.02F VSB 1/2
KNOX*          CLOUDY    64  64 100 CALM      30.01S
SOUTH BEND     CLOUDY    67  66  97 CALM      30.02S FOG
GOSHEN         MOCLDY    66  63  90 S5        30.02S
MONTICELLO*    PTCLDY    68  68 100 S3        30.01S
LOGANSPORT*    MOCLDY    63  61  94 S5        30.03S FOG
ROCHESTER*     PTCLDY    68  68 100 SE5       30.03S
WARSAW*        MOCLDY    63  63 100 CALM      30.03S FOG
ANGOLA*        CLOUDY    66  57  72 S3        30.03S
FORT WAYNE     CLOUDY    67  66  97 CALM      30.04S FOG
HUNTINGTON*    MOCLDY    65  61  87 CALM      30.03S
PERU/GRISSOM   PTCLDY    66  65  96 S5        30.02S
MARION*        PTCLDY    66  61  83 CALM      30.04S HAZE

$$
INZ028>050-300900-
CENTRAL INDIANA

CITY           SKY/WX    TMP DP  RH WIND       PRES   REMARKS
LAFAYETTE      FOG       65  64  97 CALM      30.02S VSB 1/2
KOKOMO*        CLOUDY    66  63  88 SW6       30.04S
MUNCIE*        MOCLDY    70  66  87 S6        30.04S
INDIANAPOLIS   MOCLDY    72  67  84 S7        30.02F

$$
MIZ043>046-050>051-056>058-064>065-071>073-077>080-300900-
SOUTHWEST LOWER MICHIGAN

CITY           SKY/WX    TMP DP  RH WIND       PRES   REMARKS
BATTLE CREEK   PTCLDY    66  63  90 S5        30.02F
BENTON HARBOR  CLOUDY    68  67  96 W6        30.01R FOG
COLDWATER*     CLOUDY    67  66  97 CALM      30.02S
HILLSDALE*     MOCLDY    65  65 100 CALM      30.04S FOG
HOLLAND        CLOUDY    68  65  90 CALM      30.02S FOG
GRAND RAPIDS   CLOUDY    66  65  96 E3        30.02F FOG
KALAMAZOO      PTCLDY    67  64  90 S3        30.02S FOG
STURGIS*       MOCLDY    64  64 100 CALM      30.02S FOG
THREE RIVERS*    N/A     65  65 100 CALM      30.02S FOG

$$
OHZ001>008-015>018-024>025-300900-
NORTHWEST OHIO

CITY           SKY/WX    TMP DP  RH WIND       PRES   REMARKS
WAUSEON*       MOCLDY    66  66 100 CALM      30.04S FOG
DEFIANCE       CLOUDY    69  66  90 SE6       30.04S FOG
FINDLAY        MOCLDY    70  68  93 SE6       30.04S FOG
TOLEDO EXPRESS CLOUDY    67  67 100 CALM      30.03F FOG
TOLEDO METCALF LGT RAIN  70  67  90 CALM      30.04F FOG
LIMA           MOCLDY    68  65  90 SE9       30.05F

$$
AND FOR LAKE MICHIGAN COASTAL AND OPEN LAKE BUOY OBSERVATIONS

STATION/POSITION TEMP    WIND        PRES    VSBY  WAVE
                 AIR SEA DIR/SP/G                  HT/PER
                 (F)     (DEG/KT/KT) (MB)    (MI)  (FT/S)
MICHIGAN CITY     67     300/  9/ 10   N/A
BURNS HARBOR      67     360/  5/  7 1016.9F
SAINT JOSEPH      69     260/  5/  6 1016.9S
SOUTH LAKE BUOY   67 68   CALM  /  2 1015.8F         1
4 MI NW BRIDGMAN  69 70  350/  4/  6   N/A           1
MICHIGAN CITY     68 71  340/  4/  6   N/A           1/ 2

$$
&&


USA.gov is the U.S. government's official web portal to all federal, state and local government web resources and services.